Location: Ermatingen
(47.6706°N, 9.0857°E)
Time: 08:25:41
(UTC+00:00)

ATLAS 2AS CENTAUR R/B - Pass Details

Date: 18 September 2020
Orbit: 939 x 1273 km, 63.7° (Epoch: 19 October)

Event Time Altitude Azimuth Distance (km) Brightness Sun altitude
Rises 21:01:49 0° 219° (SW) 4,195 5.7 -32.7°
Reaches altitude 10° 21:04:35 10° 220° (SW) 3,248 5.1 -33.0°
Enters shadow 21:04:48 11° 221° (SW) 3,176 5.1 -33.0°
Exits shadow 21:11:56 78° 243° (WSW) 1,303 3.0 -33.8°
Maximum altitude 21:12:34 85° 310° (NW) 1,281 2.9 -33.9°
Drops below altitude 10° 21:20:28 10° 40° (NE) 3,221 5.3 -34.7°
Sets 21:23:13 0° 41° (NE) 4,160 5.9 -34.9°
